TIME,DELAY(SENSOR),PRES,OXYGEN,RAWTEMP,T(OPTODE),TCPHASE,FLUOR,BETA(BETA700),BETA(BETA412),BETA(BETA440),CDOM,C(CSC),ED(ED411.90),ED(ED443.80),ED(ED489.40),ED(ED554.70),LU(LU412.20),LU(LU443.80),LU(LU489.40),LU(LU555.00),COMP,TILTX,TILTY,CHECK
1340750516,5804,854.9299926757812000,182.8296966552734400,479.1181945800781000,8.5323686599731450,39.2095909118652340,51,107,102,78,74,15439,2147443392,2147793325,2147578084,2147826404,2147305216,2147451693,2147760740,2148271204,2583,6,14,18616
1340754112,5804,6.3000001907348630,217.8390960693359400,531.4271850585938000,6.8929290771484375,37.9681510925293000,51,105,103,78,76,15427,2147437485,2147799277,2147584292,2147835876,2147307026,2147444589,2147767533,2148281883,585,6,14,9973
1340757712,5808,8.1999998092651370,228.8580017089843800,542.5504150390625000,6.5417900085449220,37.5613288879394500,50,109,102,78,76,15421,2147433709,2147798756,2147586112,2147830637,2147303268,2147446774,2147772397,2148283337,6,6,14,27607
1340761312,5805,952.0000000000000000,229.9734954833984400,543.0969238281250000,6.5245127677917480,37.5111694335937500,51,107,103,79,76,15383,2147433161,2147795830,2147585755,2147832320,2147307264,2147444114,2147768210,2148282779,124,6,14,58907
1340764912,5803,9.3999996185302730,232.2648925781250000,545.6652832031250000,6.4432888031005860,37.4362792968750000,50,105,103,78,77,15415,2147431808,2147802029,2147587995,2147834916,2147303012,2147441709,2147766875,2148283547,3461,6,15,13188
1340768512,5802,956.0000000000000000,231.9629058837890600,545.8411254882812000,6.4377250671386720,37.4555397033691400,51,108,103,78,77,15412,2147430272,2147797604,2147589046,2147834048,2147306038,2147443392,2147770322,2148280630,67,6,14,47429
1340772112,5802,9.8999996185302730,233.0635070800781200,547.1309814453125000,6.3969101905822750,37.4205093383789060,51,107,103,79,76,15412,2147430866,2147802788,2147588726,2147836443,2147303990,2147445577,2147770834,2148282660,3157,6,15,24339
1340775712,5806,9.8000001907348630,232.6663055419922000,546.8878173828125000,6.4046058654785160,37.4370117187500000,51,105,103,77,75,15412,2147431981,2147799286,2147587821,2147832603,2147301211,2147445028,2147770313,2148282578,3469,6,15,2289
1340779312,5806,78.0000000000000000,232.3760986328125000,547.8914184570312000,6.3728470802307130,37.4707107543945300,51,108,103,78,75,15408,2147431232,2147801600,2147588562,2147833984,2147303369,2147445696,2147767177,2148282285,78,6,15,24487
1340782912,5804,967.0000000000000000,233.2079925537109400,547.6666259765625000,6.3799610137939450,37.4222488403320300,51,107,103,79,76,15401,2147429869,2147803739,2147590372,2147835309,2147303734,2147441645,2147770422,2148281828,65,6,14,9025
1340786512,5805,1026.0000000000000000,233.6405944824218800,547.7244262695312000,6.3781318664550780,37.4006614685058600,51,108,105,79,77,15406,2147431314,2147801965,2147587346,2147834166,2147302198,2147445723,2147772516,2148282569,3578,6,14,3132
1340790112,5803,9.8999996185302730,233.2453002929687500,547.8715820312500000,6.3734722137451170,37.4244689941406250,50,106,102,78,76,15405,2147430134,2147798866,2147590784,2147835547,2147304036,2147443986,2147764672,2148280091,3321,6,14,62296
1340793712,5803,10.8999996185302730,234.7817993164062500,548.0803833007812000,6.3668627738952640,37.3478088378906250,51,105,104,78,75,15395,2147431597,2147801618,2147589138,2147836333,2147307264,2147446217,2147770148,2148284690,3075,6,15,60461
1340797312,5806,10.3000001907348630,233.4284057617187500,547.6583251953125000,6.3802242279052730,37.4108695983886700,51,104,103,78,76,15399,2147432850,2147798345,2147586413,2147836964,2147307053,2147442925,2147769234,2148281618,76,6,14,5888
1340800912,5806,10.3000001907348630,234.2342071533203000,547.9489746093750000,6.3710188865661620,37.3736801147460940,51,107,105,79,77,15394,2147429248,2147799643,2147588864,2147835026,2147304740,2147446683,2147770331,2148286774,2882,6,14,64280
1340804512,5804,10.1999998092651370,234.7783050537109400,548.0311279296875000,6.3684220314025880,37.3470611572265600,52,107,102,78,76,15392,2147431204,2147801298,2147587757,2147834404,2147307026,2147442038,2147767140,2148277796,3195,6,15,34767
1340808112,5804,1002.0000000000000000,232.6741027832031200,547.8270874023438000,6.3748798370361330,37.4536590576171900,51,106,105,80,75,15394,2147434130,2147797677,2147587830,2147835392,2147309440,2147443730,2147773165,2148282221,2910,6,15,14102
1340811712,5803,9.3999996185302730,234.1815032958984400,549.5852050781250000,6.3192200660705570,37.4059295654296900,51,105,104,78,75,15232,2147433225,2147799698,2147587510,2147833417,2147305289,2147442816,2147770432,2148283081,3457,6,15,4762
1340815312,5802,1005.0000000000000000,237.1988983154297000,549.8787841796875000,6.3099231719970700,37.2544288635253900,51,105,103,79,76,15393,2147435602,2147799954,2147588425,2147837586,2147306697,2147442715,2147772955,2148282057,3002,6,14,58797
1340818912,5804,1056.0000000000000000,235.3475036621093800,548.5859985351562000,6.3508567810058590,37.3268394470214840,52,105,102,78,75,15393,2147432758,2147801398,2147591844,2147833115,2147305234,2147440548,2147771867,2148278985,3540,6,15,30481
1340822512,5806,12.0000000000000000,233.5335998535156200,548.4000854492188000,6.3567409515380860,37.4190597534179700,51,107,105,78,77,15393,2147434112,2147796845,2147588818,2147836178,2147305846,2147443520,2147770944,2148282377,413,6,15,28026
1340826112,5804,10.6000003814697270,236.5722961425781200,550.2744140625000000,6.2973961830139160,37.2934684753418000,51,106,102,79,77,15392,2147432246,2147798107,2147585572,2147835794,2147305956,2147447369,2147769481,2148278427,3343,6,15,8049
1340829712,5804,10.6000003814697270,236.0308990478515600,548.8779296875000000,6.3416137695312500,37.2967910766601560,51,105,103,78,76,15386,2147431808,2147801408,2147586806,2147833380,2147304484,2147442870,2147772406,2148283172,196,6,15,23043
1340833312,5805,1046.0000000000000000,235.9510040283203000,548.8732299804688000,6.3417639732360840,37.3012390136718750,51,106,103,78,76,15387,2147428598,2147803483,2147588004,2147834084,2147304630,2147442020,2147770550,2148280603,52,6,14,47771
1340836912,5805,68.0000000000000000,235.2677001953125000,549.7202758789062000,6.3149409294128420,37.3519783020019500,51,105,105,78,76,15351,2147434642,2147801792,2147589494,2147836205,2147302774,2147444114,2147773805,2148283291,3241,6,15,41793
1340840512,5804,10.1000003814697270,235.0601959228515600,548.3920898437500000,6.3569970130920410,37.3389396667480500,50,106,102,79,76,15384,2147434459,2147799433,2147590244,2147834075,2147307483,2147444397,2147764406,2148284022,3183,6,15,15261
1340844112,5806,11.8999996185302730,233.1636962890625000,547.7921752929688000,6.3759841918945310,37.4269981384277340,50,107,103,78,77,15382,2147434377,2147804544,2147584960,2147833645,2147304146,2147445385,2147768859,2148281718,249,6,15,10324
1340847712,5804,162.0000000000000000,234.8861999511718800,549.9041748046875000,6.3091158866882320,37.3752784729003900,51,106,103,79,76,15383,2147432329,2147798674,2147588379,2147830336,2147304795,2147441554,2147769261,2148284032,132,6,14,4088
1340851312,5804,1065.0000000000000000,234.1697998046875000,550.0836181640625000,6.3034381866455080,37.4161987304687500,51,104,104,79,78,15382,2147433728,2147801106,2147589074,2147831524,2147306166,2147442816,2147771510,2148286253,3517,6,15,33580
1340854912,5805,10.8999996185302730,235.3204956054687500,548.7233276367188000,6.3465099334716800,37.3307189941406250,51,107,102,78,78,15377,2147431030,2147803958,2147590729,2147834596,2147304841,2147444699,2147772169,2148285769,3435,6,14,26237
1340858512,5806,78.0000000000000000,234.9102020263672000,549.9995727539062000,6.3060951232910160,37.3750381469726560,50,106,103,79,76,15382,2147429110,2147799917,2147589595,2147835520,2147306578,2147446272,2147769033,2148279954,3584,6,15,17680
1340862112,5805,10.1000003814697270,234.8294982910156200,549.3474121093750000,6.3267498016357420,37.3678283691406250,51,105,104,79,76,15379,2147429156,2147798381,2147584749,2147835181,2147305837,2147446985,2147769014,2148280832,161,6,15,43112
1340865712,5804,10.8000001907348630,236.3529052734375000,550.6625976562500000,6.2850990295410160,37.3122787475585940,52,107,102,78,76,15380,2147431094,2147800658,2147589394,2147835977,2147303872,2147440960,2147769572,2148282761,3587,6,15,48215
1340869312,5807,10.0000000000000000,235.0442047119140600,550.8505859375000000,6.2791419029235840,37.3844299316406250,51,109,104,78,76,15379,2147433472,2147802148,2147587885,2147833398,2147302317,2147444928,2147765769,2148282697,666,6,14,62819
1340872912,5805,10.0000000000000000,235.9916992187500000,550.8090820312500000,6.2804570198059080,37.3339691162109400,50,105,104,79,77,15380,2147428269,2147801920,2147587812,2147834166,2147307510,2147444077,2147767140,2148287442,102,6,15,49867
1340876512,5801,1037.0000000000000000,236.4620971679687500,551.9694213867188000,6.2437000274658200,37.3301811218261700,52,105,102,79,76,15375,2147428598,2147798381,2147588297,2147835163,2147306011,2147446985,2147767012,2148282276,126,6,14,15468
1340880112,5806,10.8000001907348630,237.1927032470703000,550.9210205078125000,6.2769150733947750,37.2733001708984400,51,105,103,79,76,15369,2147432841,2147801426,2147588928,2147835885,2147309494,2147440320,2147768932,2148281243,3352,6,15,41618
1340883712,5804,11.5000000000000000,236.3114929199218800,550.6713256835938000,6.2848238945007320,37.3146400451660160,50,105,103,79,76,15365,2147431625,2147798345,2147587894,2147836187,2147304722,2147446473,2147765101,2148281764,3277,6,15,2568
1340887312,5803,1012.0000000000000000,235.3054046630859400,549.9838256835938000,6.3065972328186035,37.3540992736816400,50,105,103,77,76,15366,2147433106,2147798116,2147588013,2147833910,2147305133,2147449307,2147768146,2148283556,3509,6,15,42474
1340890912,5804,1084.0000000000000000,234.9393005371093800,549.7274169921875000,6.3147158622741700,37.3692283630371100,51,108,103,78,76,15367,2147431780,2147797851,2147587812,2147834139,2147303296,2147445312,2147769718,2148280941,3529,6,15,47995
1340892356,5805,1003.0000000000000000,235.2348022460937500,550.7935791015625000,6.2809472084045410,37.3727912902832000,51,118,103,79,76,15357,2147433325,2147796416,2147584466,2147834386,2147306541,2147447104,2147766948,2148281133,3521,6,15,32501
